| time (UTC) | temp C | wind direction | speed KPH | gust KPH | rain 1hr cm | rain 24hr cm | rain mn cm | humidity % | barometer mb |
| 20260510232005 | 6 | 343 | 0.0 | 4.8 | 0.00 | 0.00 | 0.00 | 78 | 1006.2 |
| 20260510231006 | 6 | 336 | 1.6 | 4.8 | 0.00 | 0.00 | 0.00 | 78 | 1006.2 |
| 20260510230008 | 6 | 344 | 0.0 | 4.8 | 0.00 | 0.00 | 0.00 | 79 | 1006.2 |
| 20260510225006 | 7 | 349 | 1.6 | 4.8 | 0.00 | 0.00 | 0.00 | 79 | 1006.3 |
| 20260510224006 | 7 | 343 | 0.0 | 4.8 | 0.00 | 0.00 | 0.00 | 80 | 1006.3 |
| 20260510223008 | 7 | 343 | 0.0 | 4.8 | 0.00 | 0.00 | 0.00 | 80 | 1006.4 |
| 20260510222005 | 7 | 336 | 0.0 | 4.8 | 0.00 | 0.00 | 0.00 | 81 | 1006.5 |
| 20260510221005 | 7 | 341 | 0.0 | 3.2 | 0.00 | 0.00 | 0.00 | 82 | 1006.6 |
| 20260510220008 | 7 | 354 | 1.6 | 4.8 | 0.00 | 0.00 | 0.00 | 82 | 1006.6 |
| 20260510215005 | 7 | 354 | 3.2 | 8.0 | 0.00 | 0.00 | 0.00 | 83 | 1006.7 |
| 20260510214006 | 8 | 346 | 3.2 | 9.7 | 0.00 | 0.00 | 0.00 | 84 | 1006.7 |
| 20260510213008 | 8 | 0 | 0.0 | 1.6 | 0.00 | 0.00 | 0.00 | 84 | 1006.8 |
| 20260510212005 | 8 | 1 | 0.0 | 0.0 | 0.00 | 0.00 | 0.00 | 83 | 1007.0 |
| 20260510211006 | 8 | 1 | 0.0 | 0.0 | 0.00 | 0.00 | 0.00 | 82 | 1007.2 |
| 20260510210008 | 8 | 1 | 0.0 | 0.0 | 0.00 | 0.00 | 0.00 | 82 | 1007.2 |
| 20260510205006 | 8 | 1 | 0.0 | 0.0 | 0.00 | 0.00 | 0.00 | 83 | 1007.2 |
| 20260510204006 | 8 | 1 | 0.0 | 0.0 | 0.00 | 0.00 | 0.00 | 83 | 1007.3 |
| 20260510203008 | 8 | 1 | 0.0 | 0.0 | 0.00 | 0.00 | 0.00 | 83 | 1007.6 |
| 20260510202006 | 8 | 1 | 0.0 | 1.6 | 0.00 | 0.00 | 0.00 | 83 | 1007.7 |
| 20260510201006 | 8 | 359 | 0.0 | 1.6 | 0.00 | 0.00 | 0.00 | 82 | 1007.7 |
| 20260510200008 | 8 | 359 | 0.0 | 1.6 | 0.00 | 0.00 | 0.00 | 82 | 1007.7 |
| 20260510195007 | 9 | 1 | 0.0 | 1.6 | 0.00 | 0.00 | 0.00 | 82 | 1007.7 |
| 20260510194006 | 9 | 20 | 0.0 | 1.6 | 0.00 | 0.00 | 0.00 | 81 | 1007.7 |
| 20260510193008 | 9 | 1 | 0.0 | 3.2 | 0.00 | 0.00 | 0.00 | 81 | 1007.7 |
| 20260510192006 | 10 | 1 | 0.0 | 1.6 | 0.00 | 0.00 | 0.00 | 80 | 1007.7 |
| 20260510191005 | 10 | 5 | 0.0 | 1.6 | 0.00 | 0.00 | 0.00 | 79 | 1007.7 |
| 20260510190017 | 10 | 8 | 0.0 | 1.6 | 0.00 | 0.00 | 0.00 | 78 | 1007.7 |
| 20260510185006 | 10 | 8 | 0.0 | 1.6 | 0.00 | 0.00 | 0.00 | 78 | 1007.7 |
| 20260510184005 | 10 | 12 | 0.0 | 3.2 | 0.00 | 0.00 | 0.00 | 78 | 1007.7 |
| 20260510183009 | 10 | 7 | 0.0 | 8.0 | 0.00 | 0.00 | 0.00 | 78 | 1007.7 |
| 20260510182006 | 11 | 359 | 1.6 | 4.8 | 0.00 | 0.00 | 0.00 | 77 | 1007.9 |
| 20260510181005 | 11 | 359 | 1.6 | 4.8 | 0.00 | 0.00 | 0.00 | 77 | 1008.0 |
| 20260510180007 | 11 | 353 | 0.0 | 4.8 | 0.00 | 0.00 | 0.00 | 75 | 1008.1 |
| 20260510175006 | 11 | 352 | 0.0 | 3.2 | 0.00 | 0.00 | 0.00 | 74 | 1008.2 |
| 20260510174006 | 11 | 355 | 0.0 | 4.8 | 0.00 | 0.00 | 0.00 | 75 | 1008.3 |
| 20260510173008 | 11 | 358 | 1.6 | 4.8 | 0.00 | 0.00 | 0.00 | 74 | 1008.3 |
| 20260510172005 | 11 | 338 | 4.8 | 9.7 | 0.00 | 0.00 | 0.00 | 73 | 1008.4 |
| 20260510171006 | 11 | 339 | 1.6 | 9.7 | 0.00 | 0.00 | 0.00 | 73 | 1008.6 |
| 20260510170007 | 12 | 330 | 6.4 | 16.1 | 0.00 | 0.00 | 0.00 | 73 | 1008.8 |
| 20260510165005 | 12 | 309 | 3.2 | 11.3 | 0.00 | 0.00 | 0.00 | 74 | 1008.8 |
| 20260510164006 | 12 | 349 | 4.8 | 11.3 | 0.00 | 0.00 | 0.00 | 74 | 1008.8 |
| 20260510163008 | 12 | 344 | 0.0 | 8.0 | 0.00 | 0.00 | 0.00 | 72 | 1008.9 |
| 20260510162006 | 12 | 324 | 3.2 | 8.0 | 0.00 | 0.00 | 0.00 | 73 | 1009.0 |
| 20260510161006 | 11 | 346 | 1.6 | 9.7 | 0.00 | 0.00 | 0.00 | 72 | 1009.1 |
| 20260510160008 | 12 | 351 | 3.2 | 11.3 | 0.00 | 0.00 | 0.00 | 71 | 1009.1 |
| 20260510155006 | 12 | 340 | 4.8 | 12.9 | 0.00 | 0.00 | 0.00 | 71 | 1009.2 |
| 20260510154005 | 12 | 323 | 4.8 | 12.9 | 0.00 | 0.00 | 0.00 | 70 | 1009.3 |
| 20260510153009 | 12 | 294 | 4.8 | 16.1 | 0.00 | 0.00 | 0.00 | 67 | 1009.3 |
| 20260510152006 | 12 | 328 | 9.7 | 19.3 | 0.00 | 0.00 | 0.00 | 65 | 1009.4 |
| 20260510151006 | 13 | 306 | 1.6 | 19.3 | 0.00 | 0.00 | 0.00 | 65 | 1009.5 |
| 20260510150007 | 13 | 325 | 8.0 | 19.3 | 0.00 | 0.00 | 0.00 | 65 | 1009.6 |
| 20260510145005 | 13 | 301 | 1.6 | 14.5 | 0.00 | 0.00 | 0.00 | 64 | 1009.8 |
| 20260510144005 | 13 | 305 | 1.6 | 14.5 | 0.00 | 0.00 | 0.00 | 61 | 1009.8 |
| 20260510143008 | 13 | 316 | 8.0 | 16.1 | 0.00 | 0.00 | 0.00 | 59 | 1009.8 |
| 20260510142005 | 13 | 319 | 14.5 | 19.3 | 0.00 | 0.00 | 0.00 | 58 | 1009.8 |
| 20260510141006 | 13 | 334 | 14.5 | 24.1 | 0.00 | 0.00 | 0.00 | 58 | 1009.9 |
| 20260510140007 | 14 | 298 | 6.4 | 19.3 | 0.00 | 0.00 | 0.00 | 56 | 1010.0 |
| 20260510135005 | 14 | 308 | 6.4 | 22.5 | 0.00 | 0.00 | 0.00 | 59 | 1010.1 |
| 20260510134006 | 14 | 303 | 11.3 | 22.5 | 0.00 | 0.00 | 0.00 | 56 | 1010.2 |
| 20260510133008 | 14 | 304 | 9.7 | 19.3 | 0.00 | 0.00 | 0.00 | 54 | 1010.2 |
| 20260510132005 | 14 | 309 | 8.0 | 20.9 | 0.00 | 0.00 | 0.00 | 59 | 1010.3 |
| 20260510131006 | 14 | 290 | 4.8 | 22.5 | 0.00 | 0.00 | 0.00 | 61 | 1010.4 |
| 20260510130008 | 13 | 313 | 9.7 | 19.3 | 0.00 | 0.00 | 0.00 | 63 | 1010.4 |
| 20260510125006 | 13 | 300 | 1.6 | 19.3 | 0.00 | 0.00 | 0.00 | 65 | 1010.5 |
| 20260510124005 | 13 | 311 | 3.2 | 16.1 | 0.00 | 0.00 | 0.00 | 68 | 1010.7 |
| 20260510123007 | 13 | 305 | 1.6 | 16.1 | 0.00 | 0.00 | 0.00 | 66 | 1010.8 |
| 20260510122006 | 14 | 303 | 1.6 | 9.7 | 0.00 | 0.00 | 0.00 | 67 | 1010.8 |
| 20260510121005 | 14 | 316 | 0.0 | 9.7 | 0.00 | 0.00 | 0.00 | 70 | 1010.8 |
| 20260510120007 | 13 | 293 | 3.2 | 14.5 | 0.00 | 0.00 | 0.00 | 72 | 1010.9 |
| 20260510115006 | 13 | 281 | 8.0 | 19.3 | 0.00 | 0.00 | 0.00 | 75 | 1010.9 |
| 20260510114006 | 13 | 310 | 11.3 | 19.3 | 0.00 | 0.00 | 0.00 | 74 | 1011.0 |
| 20260510113008 | 14 | 284 | 1.6 | 9.7 | 0.00 | 0.00 | 0.00 | 71 | 1011.1 |
| 20260510112005 | 13 | 299 | 1.6 | 8.0 | 0.00 | 0.00 | 0.00 | 68 | 1011.3 |
| 20260510111006 | 13 | 301 | 4.8 | 14.5 | 0.00 | 0.00 | 0.00 | 72 | 1011.4 |
| 20260510110008 | 13 | 295 | 3.2 | 11.3 | 0.00 | 0.00 | 0.00 | 75 | 1011.5 |
| 20260510105005 | 13 | 295 | 3.2 | 11.3 | 0.00 | 0.00 | 0.00 | 76 | 1011.5 |
| 20260510104005 | 13 | 300 | 9.7 | 14.5 | 0.00 | 0.00 | 0.00 | 74 | 1011.5 |
| 20260510103008 | 13 | 245 | 0.0 | 3.2 | 0.00 | 0.00 | 0.00 | 75 | 1011.6 |
| 20260510102006 | 13 | 271 | 1.6 | 16.1 | 0.00 | 0.00 | 0.00 | 76 | 1011.9 |
| 20260510101006 | 13 | 287 | 1.6 | 11.3 | 0.00 | 0.00 | 0.00 | 76 | 1012.0 |
| 20260510100007 | 13 | 239 | 0.0 | 4.8 | 0.00 | 0.00 | 0.00 | 76 | 1012.0 |
| 20260510095005 | 13 | 221 | 0.0 | 3.2 | 0.00 | 0.00 | 0.00 | 75 | 1012.1 |
| 20260510094005 | 12 | 209 | 0.0 | 1.6 | 0.00 | 0.00 | 0.00 | 74 | 1012.1 |
| 20260510093009 | 12 | 221 | 0.0 | 1.6 | 0.00 | 0.00 | 0.00 | 77 | 1012.4 |
| 20260510092006 | 12 | 208 | 0.0 | 1.6 | 0.00 | 0.00 | 0.00 | 77 | 1012.4 |
| 20260510091005 | 12 | 195 | 0.0 | 1.6 | 0.00 | 0.00 | 0.00 | 77 | 1012.5 |
| 20260510090007 | 12 | 202 | 0.0 | 1.6 | 0.00 | 0.00 | 0.00 | 77 | 1012.6 |
| 20260510085005 | 12 | 203 | 0.0 | 0.0 | 0.00 | 0.00 | 0.00 | 78 | 1012.7 |
| 20260510084005 | 12 | 169 | 0.0 | 1.6 | 0.00 | 0.00 | 0.00 | 78 | 1012.7 |
| 20260510083007 | 12 | 176 | 0.0 | 4.8 | 0.00 | 0.00 | 0.00 | 79 | 1012.8 |
| 20260510082005 | 12 | 156 | 1.6 | 4.8 | 0.00 | 0.00 | 0.00 | 80 | 1012.6 |
| 20260510081005 | 11 | 150 | 0.0 | 1.6 | 0.00 | 0.00 | 0.00 | 81 | 1012.6 |
| 20260510080008 | 11 | 146 | 0.0 | 1.6 | 0.00 | 0.00 | 0.00 | 82 | 1012.7 |
| 20260510075005 | 11 | 146 | 0.0 | 3.2 | 0.00 | 0.00 | 0.00 | 84 | 1012.6 |
| 20260510074006 | 11 | 147 | 0.0 | 4.8 | 0.00 | 0.00 | 0.00 | 85 | 1012.6 |
| 20260510073008 | 11 | 134 | 0.0 | 3.2 | 0.00 | 0.00 | 0.00 | 87 | 1012.7 |
| 20260510072006 | 10 | 141 | 0.0 | 0.0 | 0.00 | 0.00 | 0.00 | 88 | 1012.9 |
| 20260510071006 | 10 | 141 | 0.0 | 0.0 | 0.00 | 0.00 | 0.00 | 89 | 1013.0 |
| 20260510070007 | 10 | 141 | 0.0 | 0.0 | 0.00 | 0.00 | 0.00 | 89 | 1013.0 |
| 20260510065006 | 9 | 141 | 0.0 | 1.6 | 0.00 | 0.00 | 0.00 | 90 | 1013.0 |
| 20260510064005 | 9 | 140 | 0.0 | 0.0 | 0.00 | 0.00 | 0.00 | 90 | 1013.0 |
| 20260510063008 | 9 | 136 | 0.0 | 1.6 | 0.00 | 0.00 | 0.00 | 90 | 1013.1 |
| 20260510062007 | 8 | 136 | 0.0 | 0.0 | 0.00 | 0.00 | 0.00 | 90 | 1013.1 |
| 20260510061006 | 8 | 136 | 0.0 | 1.6 | 0.00 | 0.00 | 0.00 | 91 | 1013.3 |
| 20260510060008 | 8 | 136 | 0.0 | 3.2 | 0.00 | 0.00 | 0.00 | 91 | 1013.3 |
| 20260510055006 | 8 | 136 | 0.0 | 1.6 | 0.00 | 0.00 | 0.00 | 91 | 1013.4 |
| 20260510054006 | 8 | 141 | 0.0 | 1.6 | 0.00 | 0.00 | 0.00 | 91 | 1013.4 |
| 20260510053008 | 8 | 139 | 0.0 | 1.6 | 0.00 | 0.00 | 0.00 | 91 | 1013.4 |
| 20260510052006 | 7 | 145 | 3.2 | 9.7 | 0.00 | 0.00 | 0.00 | 91 | 1013.5 |
| 20260510051006 | 7 | 322 | 0.0 | 4.8 | 0.00 | 0.00 | 0.00 | 91 | 1013.6 |
| 20260510050008 | 7 | 129 | 1.6 | 9.7 | 0.00 | 0.00 | 0.00 | 91 | 1013.5 |
| 20260510045006 | 7 | 122 | 3.2 | 9.7 | 0.00 | 0.00 | 0.00 | 91 | 1013.6 |
| 20260510044006 | 7 | 123 | 3.2 | 9.7 | 0.00 | 0.00 | 0.00 | 91 | 1013.6 |
| 20260510043008 | 7 | 108 | 1.6 | 4.8 | 0.00 | 0.00 | 0.00 | 91 | 1013.9 |
| 20260510042006 | 7 | 109 | 1.6 | 4.8 | 0.00 | 0.00 | 0.00 | 91 | 1014.0 |
| 20260510041005 | 7 | 115 | 0.0 | 4.8 | 0.00 | 0.00 | 0.00 | 91 | 1014.1 |
| 20260510040008 | 7 | 106 | 0.0 | 3.2 | 0.00 | 0.00 | 0.00 | 90 | 1014.2 |
| 20260510035005 | 7 | 109 | 1.6 | 4.8 | 0.00 | 0.00 | 0.00 | 90 | 1014.4 |
| 20260510034005 | 7 | 109 | 0.0 | 3.2 | 0.00 | 0.00 | 0.00 | 90 | 1014.5 |
| 20260510033008 | 7 | 100 | 0.0 | 4.8 | 0.00 | 0.00 | 0.00 | 90 | 1014.6 |
| 20260510032006 | 7 | 101 | 0.0 | 8.0 | 0.00 | 0.00 | 0.00 | 90 | 1014.5 |
| 20260510031006 | 6 | 106 | 1.6 | 8.0 | 0.00 | 0.00 | 0.00 | 90 | 1014.6 |
| 20260510030008 | 6 | 106 | 3.2 | 9.7 | 0.00 | 0.00 | 0.00 | 89 | 1014.6 |
| 20260510025005 | 6 | 122 | 1.6 | 8.0 | 0.00 | 0.00 | 0.00 | 89 | 1014.6 |
| 20260510024006 | 6 | 114 | 1.6 | 9.7 | 0.00 | 0.00 | 0.00 | 88 | 1014.7 |
| 20260510023008 | 6 | 118 | 3.2 | 11.3 | 0.00 | 0.00 | 0.00 | 87 | 1014.9 |
| 20260510022006 | 6 | 115 | 3.2 | 11.3 | 0.00 | 0.00 | 0.00 | 87 | 1015.1 |
| 20260510021006 | 6 | 118 | 4.8 | 9.7 | 0.00 | 0.00 | 0.00 | 86 | 1015.1 |
| 20260510020009 | 6 | 119 | 1.6 | 11.3 | 0.00 | 0.00 | 0.00 | 86 | 1015.2 |
| 20260510015006 | 6 | 117 | 6.4 | 14.5 | 0.00 | 0.00 | 0.00 | 85 | 1015.2 |
| 20260510014006 | 6 | 116 | 4.8 | 14.5 | 0.00 | 0.00 | 0.00 | 84 | 1015.2 |
| 20260510013008 | 6 | 111 | 3.2 | 8.0 | 0.00 | 0.00 | 0.00 | 84 | 1015.5 |
| 20260510012006 | 6 | 113 | 4.8 | 11.3 | 0.00 | 0.00 | 0.00 | 84 | 1015.6 |
| 20260510011006 | 6 | 110 | 3.2 | 11.3 | 0.00 | 0.00 | 0.00 | 85 | 1015.6 |
| 20260510010009 | 5 | 104 | 3.2 | 11.3 | 0.00 | 0.00 | 0.00 | 85 | 1015.7 |
| 20260510005006 | 5 | 99 | 3.2 | 8.0 | 0.00 | 0.00 | 0.00 | 85 | 1016.0 |
| 20260510004006 | 5 | 104 | 1.6 | 9.7 | 0.00 | 0.00 | 0.00 | 85 | 1016.2 |
| 20260510003009 | 5 | 103 | 1.6 | 4.8 | 0.00 | 0.00 | 0.00 | 85 | 1016.4 |
| 20260510002006 | 5 | 95 | 0.0 | 4.8 | 0.00 | 0.00 | 0.00 | 85 | 1016.7 |
| 20260510001006 | 5 | 103 | 0.0 | 4.8 | 0.00 | 0.00 | 0.00 | 84 | 1016.8 |
| 20260510000008 | 5 | 98 | 0.0 | 3.2 | 0.00 | 0.00 | 0.00 | 83 | 1016.9 |
| 20260509235006 | 5 | 115 | 0.0 | 1.6 | 0.00 | 0.00 | 0.00 | 82 | 1017.0 |
| 20260509234006 | 5 | 116 | 0.0 | 0.0 | 0.00 | 0.00 | 0.00 | 80 | 1017.2 |
| 20260509233008 | 5 | 132 | 0.0 | 0.0 | 0.00 | 0.00 | 0.00 | 80 | 1017.3 |